[[{"header":{"parameterUnit":"m.s-1","parameterCategory":1,"la1":30.2991,"la2":30.254,"lo1":-89.0895,"lo2":-89.0444,"dy":0.0017,"dx":0.0017,"nx":28,"ny":28,"refTime":"2024-04-26T09:00:00:Z","depth":0,"parameterNumber":2,"parameterNumberName":"U-component_of_WINDS"},"data":[0,0,0,0,0,0,0,0,0,0,0,0,0,0,0,0,0,0,0,0,0,0,0,0,0,0,0,0,0,0,0,0,0,0,0,0,0,0,0,0,0,0,0,0,0,0,0,0,0,0,0,0,0,0,0,0,0,0,-7.5554,-7.5555,0,-7.5586,-7.5586,-7.5586,-7.5466,-7.5462,-7.5459,-7.5456,-7.5483,-7.5487,-7.5491,0,0,0,0,0,0,0,0,0,0,0,0,0,-7.5387,-7.5391,-7.5554,-7.5555,-7.5555,-7.5586,-7.5586,-7.5586,-7.5467,-7.5462,-7.5458,-7.5454,-7.5482,-7.5487,-7.5492,0,0,0,0,0,0,0,0,0,0,0,0,0,-7.5443,-7.5392,-7.5554,-7.5499,-7.5495,-7.5586,-7.5586,-7.5587,-7.5468,-7.5462,-7.5457,-7.5452,-7.548,-7.5486,-7.5492,-7.5637,0,0,-7.5511,-7.5514,0,0,0,0,0,0,0,0,-7.544,-7.545,-7.5507,-7.5503,-7.5498,-7.5517,-7.5537,-7.5603,-7.5469,-7.5478,-7.5455,-7.5449,-7.5498,-7.5503,-7.552,-7.5638,-7.5639,-7.5511,-7.5515,-7.5518,-7.5519,0,0,0,0,0,0,0,-7.5437,-7.5447,-7.5567,-7.5508,-7.5503,-7.5472,-7.5474,-7.5549,-7.5517,-7.5476,-7.5468,-7.5473,-7.5495,-7.5515,-7.552,-7.564,-7.5511,-7.5517,-7.552,-7.5523,-7.5876,-7.5881,0,0,0,0,0,0,-7.544,-7.5445,-7.5566,-7.5567,-7.5456,-7.5479,-7.5481,-7.5516,-7.5516,-7.5511,-7.5478,-7.5468,-7.5507,-7.5513,-7.552,-7.5687,-7.5518,-7.5523,-7.5527,-7.587,-7.5877,-7.5883,0,0,0,0,0,0,-7.5437,-7.5452,-7.5564,-7.5504,-7.5516,-7.5488,-7.5527,-7.5519,-7.5539,-7.5518,-7.5511,-7.5504,-7.5503,-7.5512,-7.5609,-7.5686,-7.5526,-7.5532,-7.5863,-7.5872,-7.588,-7.6023,0,0,0,0,0,0,-7.5433,-7.5452,-7.5507,-7.5506,-7.552,-7.5653,-7.5532,-7.5524,-7.555,-7.5537,-7.554,-7.5535,-7.5499,-7.56,-7.5615,-7.5692,-7.5536,-7.5856,-7.5867,-7.5877,-7.6011,-7.6035,-7.6056,0,0,0,0,0,-7.5428,-7.5545,-7.5511,-7.5526,-7.5588,-7.5658,-7.5665,-7.5623,-7.5557,-7.5611,-7.5598,-7.5535,-7.5677,-7.5611,-7.5626,-7.5707,-7.5851,-7.5864,-7.5877,-7.6001,-7.6031,-7.6056,0,0,0,0,0,0,-7.5554,-7.5544,-7.5505,-7.5627,-7.5645,-7.5638,-7.5704,-7.5656,-7.5691,-7.5677,-7.5622,-7.5623,-7.5729,-7.5728,-7.5655,-7.5846,-7.5752,-7.5769,-7.5842,-7.587,-7.5892,-7.5887,-7.5541,0,0,0,0,0,-7.5597,-7.5655,-7.5643,-7.5751,-7.5763,-7.5733,-7.5762,-7.5728,-7.5743,-7.5749,-7.5742,-7.5759,-7.5806,-7.5839,-7.5882,-7.6013,-7.601,-7.6075,-7.6098,-7.6117,-7.613,-7.6197,-7.6225,-7.5926,-7.5926,-7.5925,0,0,-7.5683,-7.5686,-7.5726,-7.5777,-7.5786,-7.5847,-7.5739,-7.5808,-7.5852,-7.5759,-7.5849,-7.5846,-7.586,-7.5974,-7.6024,-7.5976,-7.6213,-7.6133,-7.6148,-7.6151,-7.6213,-7.6241,-7.6266,-7.5934,-7.5933,-7.5931,0,0,-7.5872,-7.5882,-7.5971,-7.5984,-7.6001,-7.5981,-7.6003,-7.6005,-7.5999,-7.6089,-7.6021,-7.6072,-7.6156,-7.6169,-7.6186,-7.6383,-7.6326,-7.6399,-7.6515,-7.6581,-7.6604,-7.6625,-7.6692,-7.6717,-7.6414,-7.6414,-7.6415,0,-7.5977,-7.6067,-7.6024,-7.6097,-7.6121,-7.6043,-7.6132,-7.6147,-7.6176,-7.6194,-7.6141,-7.6245,-7.625,-7.6364,-7.6413,-7.6431,-7.6452,-7.6396,-7.6605,-7.6625,-7.6644,-7.6707,-7.6732,-7.6423,-7.6422,-7.6421,-7.642,0,-7.6194,-7.6258,-7.6329,-7.636,-7.6393,-7.6475,-7.6442,-7.648,-7.6445,-7.643,-7.6523,-7.6526,-7.6568,-7.6594,-7.6559,-7.6704,-7.6673,-7.6615,-7.6518,-7.6681,-7.6739,-7.6764,-7.6435,-7.6432,-7.6429,-7.6427,0,0,-7.6458,-7.6468,-7.6494,-7.6507,-7.6522,-7.6569,-7.6648,-7.669,-7.6722,-7.6747,-7.6808,-7.6883,-7.6829,-7.6849,-7.6816,-7.6875,-7.7027,-7.6808,-7.6807,-7.6845,-7.7183,-7.7224,-7.7253,-7.6992,-7.6996,-7.7,-7.718,0,-7.664,-7.6774,-7.6739,-7.6872,-7.6929,-7.6857,-7.6925,-7.6941,-7.693,-7.6976,-7.6964,-7.7016,-7.6942,-7.6954,-7.7009,-7.6997,-7.7093,-7.6984,-7.7046,-7.7048,-7.7039,-7.7284,-7.7327,-7.7497,-7.7203,-7.7207,-7.721,0,-7.687,-7.6904,-7.7044,-7.7049,-7.7071,-7.7133,-7.7168,-7.7215,-7.7231,-7.7219,-7.7243,-7.7199,-7.7274,-7.7183,-7.7285,-7.7211,-7.7235,-7.7233,-7.7239,-7.7239,-7.7135,-7.7286,-7.7551,-7.7575,-7.7246,-7.7243,-7.7241,0,-7.7044,-7.7126,-7.7219,-7.7233,-7.7242,-7.7287,-7.7293,-7.7304,-7.7332,-7.7364,-7.7381,-7.7422,-7.7442,-7.7474,-7.7441,-7.7378,-7.7548,-7.7453,-7.7537,-7.7538,-7.7571,-7.7568,-7.7839,-7.7596,-7.7595,-7.7595,-7.7594,0,-7.7248,-7.7335,-7.7297,-7.7354,-7.7449,-7.7408,-7.7503,-7.75,-7.7512,-7.7566,-7.7508,-7.756,-7.7515,-7.7563,-7.7539,-7.7625,-7.7636,-7.7627,-7.7618,-7.7629,-7.763,-7.764,-7.7625,-7.7601,-7.76,-7.7599,-7.7597,0,-7.7456,-7.7434,-7.7531,-7.7533,-7.7536,-7.7605,-7.7606,-7.7658,-7.7645,-7.7714,-7.7728,-7.7707,-7.776,-7.7732,-7.7787,-7.777,-7.7882,-7.7859,-7.7876,-7.7868,-7.7952,-7.7943,-7.8234,-7.8269,-7.8008,-7.801,-7.8013,0,-7.7585,-7.765,-7.766,-7.7693,-7.7703,-7.7757,-7.7786,-7.7749,-7.7781,-7.7806,-7.7855,-7.7904,-7.794,-7.8028,-7.8016,-7.8058,-7.8033,-7.8133,-7.8039,-7.8048,-7.803,-7.8024,-7.8029,-7.815,-7.8153,-7.8156,-7.8158,0,-7.7815,-7.7802,-7.7846,-7.7888,-7.7925,-7.7955,-7.798,-7.801,-7.7974,-7.8013,-7.8068,-7.8097,-7.8154,-7.8202,-7.8238,-7.8242,-7.8193,-7.8189,-7.8209,-7.8218,-7.8224,-7.8218,-7.7922,-7.818,-7.8178,-7.8177,-7.8175,-7.8174,-7.7985,-7.8039,-7.8055,-7.8106,-7.8122,-7.8147,-7.8196,-7.819,-7.8236,-7.8279,-7.8256,-7.8319,-7.8334,-7.8378,-7.8389,-7.8437,-7.8397,-7.8428,-7.8435,-7.8442,-7.8451,-7.8221,-7.8444,-7.8443,-7.8443,-7.8442,-7.8442,0,-7.8208,-7.8216,-7.8264,-7.8302,-7.8343,-7.8297,-7.8323,-7.8359,-7.8416,-7.8435,-7.8473,-7.8536,-7.8583,-7.8577,-7.8619,-7.8659,-7.8637,-7.8671,-7.8665,-7.8666,-7.8487,-7.8462,-7.8687,-7.8687,-7.8687,-7.8687,-7.8687,-7.8687,-7.8329,-7.8418,-7.8407,-7.8503,-7.851,-7.8572,-7.8591,-7.8613,-7.8628,-7.8701,-7.874,-7.8737,-7.8745,-7.8789,-7.8829,-7.8826,-7.8842,-7.8884,-7.8872,-7.8703,-7.8679,-7.8655,-7.8632,-7.8889,-7.8889,-7.9046,-7.9048,-7.9049]},{"header":{"parameterUnit":"m.s-1","parameterCategory":1,"la1":30.2991,"la2":30.254,"lo1":-89.0895,"lo2":-89.0444,"dy":0.0017,"dx":0.0017,"nx":28,"ny":28,"refTime":"2024-04-26T09:00:00:Z","depth":0,"parameterNumber":3,"parameterNumberName":"V-component_of_WINDS"},"data":[0,0,0,0,0,0,0,0,0,0,0,0,0,0,0,0,0,0,0,0,0,0,0,0,0,0,0,0,0,0,0,0,0,0,0,0,0,0,0,0,0,0,0,0,0,0,0,0,0,0,0,0,0,0,0,0,0,0,3.4305,3.4305,0,3.4315,3.4315,3.4315,3.4258,3.4257,3.4255,3.4254,3.4262,3.4263,3.4265,0,0,0,0,0,0,0,0,0,0,0,0,0,3.4238,3.424,3.4305,3.4305,3.4305,3.4315,3.4315,3.4315,3.4259,3.4257,3.4255,3.4253,3.4261,3.4263,3.4265,0,0,0,0,0,0,0,0,0,0,0,0,0,3.426,3.424,3.4305,3.4278,3.4276,3.4315,3.4315,3.4315,3.4259,3.4257,3.4254,3.4252,3.4261,3.4263,3.4266,3.433,0,0,3.4273,3.4275,0,0,0,0,0,0,0,0,3.4258,3.4262,3.4282,3.428,3.4278,3.4283,3.4294,3.432,3.426,3.4265,3.4254,3.4251,3.4271,3.4272,3.4279,3.433,3.433,3.4274,3.4275,3.4276,3.4277,0,0,0,0,0,0,0,3.4257,3.4261,3.4309,3.4283,3.428,3.4266,3.4266,3.4299,3.4281,3.4265,3.4261,3.4263,3.4269,3.4277,3.4279,3.433,3.4274,3.4276,3.4277,3.4278,3.4436,3.4438,0,0,0,0,0,0,3.4259,3.426,3.4308,3.4309,3.4262,3.4269,3.427,3.4284,3.4281,3.4278,3.4265,3.426,3.4274,3.4276,3.4279,3.4354,3.4276,3.4279,3.428,3.4433,3.4437,3.4439,0,0,0,0,0,0,3.4258,3.4264,3.4308,3.4284,3.4288,3.4273,3.4289,3.4285,3.4293,3.4281,3.4277,3.4276,3.4272,3.4275,3.4318,3.4354,3.428,3.4282,3.443,3.4434,3.4438,3.4506,0,0,0,0,0,0,3.4256,3.4264,3.4288,3.4285,3.429,3.4347,3.4291,3.4287,3.4298,3.4292,3.4291,3.4288,3.427,3.4314,3.4321,3.4356,3.4284,3.4427,3.4432,3.4437,3.45,3.4511,3.4521,0,0,0,0,0,3.4254,3.4306,3.4289,3.4295,3.4319,3.4349,3.4352,3.4331,3.4301,3.4325,3.4318,3.4288,3.435,3.4319,3.4326,3.4363,3.4424,3.4431,3.4436,3.4495,3.4509,3.4521,0,0,0,0,0,0,3.4312,3.4305,3.4286,3.4338,3.4345,3.4339,3.4369,3.4346,3.436,3.4354,3.4327,3.4327,3.4375,3.4373,3.4339,3.4425,3.4382,3.4389,3.4424,3.4437,3.4448,3.4447,3.4286,0,0,0,0,0,3.4331,3.4356,3.4348,3.4395,3.4399,3.4384,3.4396,3.438,3.4385,3.4387,3.4383,3.4389,3.441,3.4423,3.4442,3.45,3.4499,3.4529,3.454,3.4548,3.4555,3.4587,3.46,3.4459,3.4459,3.4459,0,0,3.437,3.4369,3.4386,3.4407,3.441,3.4436,3.4386,3.4416,3.4436,3.4391,3.4431,3.4429,3.4434,3.4485,3.4507,3.4485,3.4594,3.4556,3.4563,3.4564,3.4594,3.4607,3.4619,3.4463,3.4462,3.4462,0,0,3.4455,3.4457,3.4496,3.4501,3.4507,3.4497,3.4507,3.4506,3.4503,3.4543,3.4511,3.4534,3.457,3.4575,3.4583,3.4673,3.4647,3.468,3.4734,3.4766,3.4777,3.4786,3.4819,3.4831,3.4687,3.4687,3.4687,0,3.4502,3.4541,3.452,3.4552,3.4563,3.4526,3.4566,3.4572,3.4583,3.4591,3.4567,3.4613,3.4613,3.4666,3.4688,3.4695,3.4706,3.4679,3.4777,3.4787,3.4795,3.4826,3.4838,3.4691,3.469,3.469,3.4689,0,3.46,3.4628,3.4659,3.4673,3.4687,3.4723,3.4707,3.4724,3.4708,3.47,3.4743,3.4743,3.4761,3.4773,3.4756,3.4823,3.481,3.4782,3.4737,3.4813,3.4841,3.4853,3.4696,3.4695,3.4694,3.4693,0,0,3.4718,3.4722,3.4734,3.474,3.4746,3.4767,3.4802,3.4821,3.4837,3.4847,3.4876,3.4909,3.4884,3.4892,3.4876,3.4904,3.4977,3.4873,3.4872,3.4892,3.5052,3.5072,3.5086,3.496,3.4962,3.4964,3.5051,0,3.4801,3.4862,3.4845,3.4906,3.4932,3.4899,3.493,3.4937,3.4932,3.4954,3.4948,3.4972,3.4936,3.4942,3.4968,3.4962,3.5008,3.4956,3.4986,3.4988,3.4985,3.5101,3.5122,3.5205,3.5062,3.5064,3.5065,0,3.4905,3.4921,3.4986,3.4989,3.4999,3.5027,3.5044,3.5065,3.5073,3.5067,3.5079,3.5058,3.5093,3.505,3.5099,3.5064,3.5076,3.5075,3.5078,3.5079,3.503,3.5105,3.523,3.5243,3.5083,3.5081,3.508,0,3.4986,3.5023,3.5067,3.5074,3.5078,3.5099,3.5102,3.5107,3.5121,3.5136,3.5144,3.5163,3.5174,3.5189,3.5174,3.5144,3.5225,3.518,3.5222,3.5222,3.5239,3.5238,3.5368,3.5248,3.5248,3.5248,3.5248,0,3.508,3.5121,3.5104,3.513,3.5175,3.5156,3.5201,3.52,3.5206,3.5232,3.5204,3.5229,3.5208,3.5232,3.5221,3.5263,3.5268,3.5264,3.5261,3.5267,3.5267,3.5273,3.5267,3.5251,3.525,3.525,3.5249,0,3.5177,3.5167,3.5212,3.5214,3.5216,3.5249,3.525,3.5275,3.5269,3.5303,3.5309,3.53,3.5326,3.5314,3.534,3.5333,3.5388,3.5377,3.5386,3.5382,3.5424,3.5421,3.5562,3.558,3.5449,3.5451,3.5452,0,3.5237,3.5268,3.5274,3.529,3.5295,3.5321,3.5335,3.5318,3.5334,3.5347,3.537,3.5395,3.5413,3.5457,3.5452,3.5473,3.5462,3.5511,3.5465,3.547,3.5463,3.5461,3.5464,3.5519,3.5521,3.5522,3.5523,0,3.5345,3.5339,3.5361,3.5382,3.54,3.5416,3.5429,3.5443,3.5427,3.5446,3.5474,3.5488,3.5517,3.5542,3.5561,3.5563,3.5541,3.5538,3.5548,3.5554,3.5558,3.5557,3.541,3.5534,3.5533,3.5532,3.5532,3.5531,3.5425,3.5452,3.5461,3.5486,3.5495,3.5508,3.5532,3.5531,3.5553,3.5576,3.5565,3.5597,3.5606,3.5629,3.5635,3.566,3.5641,3.5656,3.566,3.5664,3.567,3.5555,3.5663,3.5663,3.5663,3.5662,3.5662,0,3.5532,3.5537,3.5561,3.5581,3.5602,3.5581,3.5594,3.5613,3.5642,3.5652,3.5672,3.5704,3.5729,3.5727,3.5749,3.577,3.576,3.5776,3.5774,3.5775,3.5685,3.5674,3.5784,3.5784,3.5784,3.5784,3.5784,3.5784,3.559,3.5634,3.563,3.5678,3.5683,3.5715,3.5725,3.5737,3.5746,3.5784,3.5804,3.5804,3.581,3.5833,3.5854,3.5853,3.5863,3.5883,3.5878,3.5794,3.5782,3.577,3.5759,3.5885,3.5885,3.5966,3.5967,3.5967]}]]